ONEWEB-0427 (50499 NORAD) Tracking and Keplerian Element Data

This shows tracking and keplerian element data for the satellite.

Feedback or suggestion? Click here.




ElementValue
Catalog50499
NameONEWEB-0427
Epoch Orbit2296
Epoch Day140.91667824
Epoch Year2022
RAAN304.9632
Inclination87.2106
Eccentricity0.0003663
Argument of Perigee75.9926
Mean Anonmoly87.3493
Mean Motion14.92490291
Decay Rate0.00037793
L11 50499U 21132AG 22140.91667824 .00037793 00000+0 36661-2 0 9990
L22 50499 87.2106 304.9632 0003663 75.9926 87.3493 14.92490291 22960

Live tracking and technical data element details for ONEWEB-0427 (NORAD 50499). ONEWEB-0427 can be tracked NOW for your location showing map with azimuth and elevation plus other details from your city location.

Track the satellite on the map from your city or location and see movement details for azimuth, elevation, latitude, longitude, range, height, and movement on the map or in text.







IsCatalogInMostPopularTable: catalog: 50499, numindb: 31
Update: records affected: 1



GetName: 50499 ONEWEB-0427

Hit Count: updated at: Sun, 22 May 2022 04:03:39 GMT